Wind_Speed
36 41 42 44 45 47 44 40 40 39 37 34 33 32 33 35 39 44 49 45 41 37 34 27 21 16 13 14 10 7 7 4
33 37 43 46 46 46 45 44 43 42 41 40 38 38 36 36 38 38 42 47 48 45 42 36 28 24 17 15 12 8 3 5
27 34 38 44 47 48 47 46 45 43 42 41 41 41 40 40 39 39 39 40 47 49 46 42 38 32 27 19 15 11 10 3
21 25 33 38 45 47 46 45 45 45 44 43 42 43 42 42 42 42 42 40 42 45 49 49 46 39 32 29 21 17 13 13
17 17 22 30 36 41 42 41 41 41 42 42 42 43 44 44 45 45 44 40 41 44 45 50 49 45 40 35 28 23 21 19
24 20 18 19 23 28 32 34 34 34 36 37 37 38 40 42 43 45 46 44 42 45 46 48 51 50 47 40 37 30 28 26
30 25 22 20 20 22 26 30 32 34 36 37 38 38 39 40 40 40 41 44 45 46 48 49 52 56 53 49 43 37 32 32
38 34 31 27 25 24 22 25 27 28 30 34 36 36 38 41 44 47 45 39 41 46 50 52 53 57 60 56 50 45 40 37
45 39 37 34 31 27 27 27 28 30 31 34 33 33 36 36 36 36 42 47 45 44 47 50 54 55 57 62 58 53 48 45
52 45 41 41 35 30 29 29 30 32 32 29 30 36 39 39 41 43 42 40 43 49 48 48 51 57 59 60 63 62 57 51
47 51 47 43 37 35 33 33 33 32 29 30 33 37 38 36 36 37 41 44 46 47 50 52 53 54 62 63 62 66 64 59
46 46 46 44 40 37 35 35 29 28 31 32 32 33 34 37 40 41 42 44 47 49 51 53 56 57 59 66 67 65 70 67
46 44 44 42 39 36 34 33 28 29 28 28 29 31 32 32 33 34 37 44 50 55 60 60 60 62 63 64 69 72 68 73
46 43 44 42 39 37 35 33 30 30 29 27 28 30 34 33 34 38 47 54 56 60 64 65 67 66 66 68 69 73 74 73
50 45 44 42 41 39 38 34 34 31 30 30 32 33 33 34 38 44 42 31 31 31 34 58 72 71 68 67 70 73 75 78
52 48 43 42 40 41 39 38 36 34 32 32 33 33 34 35 37 44 35 36 39 43 39 45 56 68 71 68 68 72 72 78
53 49 42 41 41 40 41 40 38 34 32 32 33 32 31 33 36 39 35 36 31 40 43 35 45 57 63 67 68 69 72 75
55 50 44 39 40 39 40 37 36 34 34 33 33 32 31 35 34 36 31 30 31 36 42 28 31 46 51 55 61 64 66 73
54 51 45 41 36 37 37 35 35 35 34 34 32 33 33 33 34 34 35 34 33 30 32 22 20 36 40 43 50 55 59 64
Wind_Direction
239 232 226 227 226 230 231 232 234 237 239 240 240 240 240 238 237 237 238 238 238 235 246 252 253 255 263 282 305 343 18 200
240 232 228 227 227 229 231 234 237 241 244 245 245 243 242 243 242 240 238 241 240 239 239 246 252 248 249 251 276 297 310 203
239 230 226 225 226 228 230 232 235 239 243 246 249 248 246 246 246 245 242 238 238 238 240 244 242 243 242 241 245 259 261 216
236 231 226 226 225 225 229 233 238 241 244 247 250 253 253 251 248 245 244 240 241 240 238 238 241 240 240 236 238 240 233 228
224 226 223 220 222 224 228 234 238 244 247 250 253 253 252 250 249 247 244 240 237 240 237 235 234 237 235 237 232 231 229 224
220 217 205 200 205 214 223 229 233 236 241 243 245 247 250 252 250 248 245 242 235 236 236 234 233 234 232 232 233 227 223 217
217 211 212 212 217 222 228 234 240 243 248 250 250 249 251 253 255 250 247 243 239 234 233 233 229 233 232 231 230 226 223 217
218 215 211 213 218 229 241 244 247 247 247 248 250 250 251 252 253 253 247 243 241 238 234 233 232 228 231 230 229 226 224 221
221 221 224 225 224 231 235 237 243 247 248 249 250 250 250 250 253 256 253 245 241 238 236 232 233 234 231 230 229 229 227 225
221 223 227 232 234 239 242 246 251 252 253 257 258 257 256 258 257 256 256 255 249 243 240 236 232 232 234 232 229 229 231 228
219 224 227 231 234 239 245 246 250 251 261 259 258 260 262 259 258 256 252 252 251 249 244 242 239 233 232 233 230 227 227 229
219 220 224 229 231 238 242 246 248 255 257 256 257 260 262 262 262 260 255 251 249 249 246 245 242 240 234 232 232 229 223 225
219 220 224 227 228 232 237 242 244 252 257 261 267 273 272 269 264 263 262 258 256 253 252 251 245 240 236 233 232 231 226 222
226 220 222 225 229 234 238 242 247 252 256 262 269 270 272 276 272 272 276 269 261 258 254 250 247 242 238 233 232 231 229 225
227 229 226 230 235 236 241 244 247 255 259 264 267 273 271 277 278 288 285 267 259 281 272 250 245 244 239 236 232 231 230 228
223 224 226 234 240 241 242 243 247 253 260 268 271 277 278 278 287 305 276 269 278 293 293 252 245 237 237 235 234 231 229 229
224 229 233 239 242 243 243 244 246 253 260 270 275 280 280 284 292 310 282 271 285 294 304 280 247 231 230 232 231 231 228 230
224 227 227 234 240 242 246 247 248 252 261 273 276 281 282 286 299 309 294 275 276 292 308 291 247 225 224 227 227 228 228 228
227 228 230 233 239 242 244 245 247 252 262 269 277 282 285 291 300 306 293 291 292 290 298 295 242 223 220 224 227 228 228 230
Height
10818 10825 10833 10839 10845 10849 10856 10862 10864 10867 10871 10876 10880 10884 10887 10889 10893 10898 10903 10907 10914 10920 10922 10927 10928 10931 10933 10933 10932 10931 10931 10932
10810 10815 10822 10829 10836 10843 10848 10852 10856 10860 10864 10868 10872 10875 10879 10882 10885 10890 10895 10900 10906 10912 10918 10922 10925 10928 10929 10931 10932 10933 10933 10934
10802 10806 10811 10818 10826 10832 10839 10843 10847 10852 10855 10858 10862 10866 10871 10875 10879 10882 10888 10893 10897 10903 10909 10914 10919 10923 10925 10927 10930 10931 10933 10935
10796 10798 10802 10809 10816 10823 10829 10834 10839 10843 10847 10850 10853 10855 10861 10866 10870 10873 10878 10885 10889 10893 10900 10906 10910 10915 10919 10924 10926 10929 10932 10933
10790 10793 10795 10800 10806 10814 10820 10826 10831 10836 10838 10843 10845 10846 10849 10853 10858 10862 10869 10875 10881 10884 10889 10895 10899 10904 10911 10916 10920 10924 10927 10929
10785 10789 10793 10797 10801 10807 10812 10818 10823 10826 10828 10832 10835 10837 10839 10842 10847 10851 10857 10863 10869 10873 10878 10883 10889 10895 10902 10908 10913 10917 10920 10925
10779 10784 10788 10793 10798 10802 10806 10810 10815 10819 10822 10824 10828 10831 10832 10834 10837 10841 10845 10850 10856 10860 10864 10870 10878 10883 10891 10899 10905 10911 10914 10918
10770 10775 10781 10786 10791 10795 10799 10803 10806 10811 10814 10815 10817 10819 10821 10824 10826 10829 10834 10839 10843 10848 10853 10858 10864 10871 10878 10885 10893 10900 10906 10910
10761 10767 10773 10778 10783 10788 10792 10796 10799 10801 10803 10806 10809 10812 10813 10814 10817 10819 10821 10827 10831 10835 10840 10847 10853 10858 10865 10873 10881 10888 10896 10902
10751 10758 10764 10768 10775 10780 10784 10787 10790 10792 10794 10798 10800 10801 10802 10806 10809 10810 10812 10816 10820 10825 10830 10835 10839 10845 10850 10857 10866 10875 10882 10889
10741 10749 10756 10760 10767 10772 10776 10779 10781 10784 10788 10790 10790 10790 10793 10795 10796 10800 10803 10805 10808 10812 10816 10820 10825 10831 10835 10841 10849 10859 10868 10876
10730 10738 10746 10753 10758 10763 10767 10770 10776 10779 10779 10780 10781 10781 10784 10785 10785 10788 10791 10794 10796 10797 10799 10804 10809 10813 10821 10827 10834 10841 10850 10862
10723 10733 10739 10744 10749 10754 10758 10763 10768 10769 10770 10771 10772 10773 10773 10774 10775 10776 10779 10780 10780 10782 10783 10786 10789 10794 10802 10809 10815 10823 10836 10845
10718 10725 10729 10735 10741 10746 10751 10755 10759 10760 10762 10763 10763 10764 10763 10763 10764 10765 10764 10761 10762 10763 10764 10766 10768 10775 10784 10790 10798 10807 10818 10827
10708 10715 10720 10725 10732 10738 10743 10747 10749 10752 10754 10754 10755 10755 10755 10754 10752 10750 10745 10743 10744 10742 10740 10737 10743 10752 10761 10772 10780 10787 10798 10807
10699 10705 10712 10718 10724 10729 10735 10737 10740 10742 10744 10744 10745 10746 10745 10743 10740 10734 10730 10729 10727 10723 10719 10717 10720 10727 10738 10751 10760 10770 10779 10787
10690 10696 10704 10708 10714 10720 10725 10728 10732 10734 10736 10736 10736 10735 10734 10732 10729 10723 10717 10716 10716 10711 10704 10699 10699 10705 10717 10729 10740 10749 10761 10770
10680 10686 10692 10700 10706 10712 10716 10720 10724 10726 10727 10727 10727 10726 10724 10721 10718 10712 10708 10706 10705 10701 10694 10687 10684 10693 10704 10714 10723 10733 10745 10755
10670 10678 10685 10690 10698 10702 10706 10710 10713 10716 10718 10718 10717 10715 10713 10710 10706 10703 10700 10697 10696 10694 10691 10684 10683 10689 10698 10707 10714 10722 10730 10738